Home > Weather > Schwerin > Past weeks

Flag for Germany Past Weather in Schwerin, Mecklenburg-Western Pomerania, Germany — Yesterday and Last 2 Weeks

Now
59 °F

Passing clouds.


Feels Like: 59 °F
Forecast: 54 / 69 °F
Wind: 5 mph from Southwest

Location: Laage

Current Time: Jun 27, 2016 at 12:38:19 AM

Latest Report: Jun 26, 2016 at 11:20 PM


Visibility: N/A

Pressure: 30.01 "Hg

Humidity: 77%

Dew Point: 52 °F

Location of SchwerinLocation

Past Weather in Schwerin — Graph

°F

Schwerin Temperature Yesterday

Maximum temperature yesterday: 70 °F (at 3:20 PM)
Minimum temperature yesterday: 57 °F (at 6:20 AM)
Average temperature yesterday: 64 °F

High & Low Weather Summary for the Past Weeks

 TemperatureHumidityPressure
High88 °F (Jun 23, 3:20 PM)100% (Jun 12, 9:20 PM)30.24 "Hg (Jun 12, 9:20 PM)
Low46 °F (Jun 20, 5:20 AM)40% (Jun 24, 2:20 PM)29.45 "Hg (Jun 14, 7:20 PM)
Average64 °F78%29.86 "Hg
* Reported Jun 11 11:20 PM — Jun 26 11:20 PM, Schwerin, Weather by CustomWeather, © 2016

Note: Actual official high and low records may vary slightly from our data, if they occured in-between our weather recording intervals... More about our weather records

Advertising

Schwerin Weather History for the Previous 24 Hours

Scroll right to see more
 ConditionsComfort  
Time TempWeatherWind HumidityBarometerVisibility
11:20 PM
Sun, Jun 26
59 °FPassing clouds.5 mph77%30.01 "HgN/A
10:20 PM63 °FMild.6 mph64%30.01 "HgN/A
9:20 PM66 °FPassing clouds.5 mph60%29.98 "HgN/A
8:20 PM68 °FPassing clouds.8 mph53%29.98 "HgN/A
7:20 PM70 °FPartly sunny.7 mph50%29.98 "HgN/A
6:20 PM70 °FPassing clouds.9 mph46%29.98 "HgN/A
5:20 PM70 °FPassing clouds.10 mph50%29.98 "HgN/A
4:20 PM68 °FPassing clouds.9 mph53%29.98 "HgN/A
3:20 PM70 °FPassing clouds.14 mph50%29.98 "HgN/A
2:20 PM68 °FPassing clouds.14 mph53%29.98 "HgN/A
1:20 PM68 °FScattered clouds.14 mph56%29.98 "HgN/A
12:20 PM66 °FPartly sunny.15 mph64%29.98 "HgN/A
11:20 AM64 °FPartly sunny.15 mph68%29.98 "HgN/A
10:20 AM63 °FPartly sunny.12 mph77%29.95 "HgN/A
9:20 AM59 °FScattered clouds.10 mph94%29.95 "HgN/A
8:20 AM61 °FBroken clouds.15 mph83%29.92 "HgN/A
7:49 AM59 °FPartly sunny.16 mph88%29.92 "HgN/A
7:20 AM59 °FPartly sunny.12 mph88%29.92 "HgN/A
6:20 AM57 °FPartly sunny.15 mph100%29.89 "HgN/A
5:20 AM59 °FPassing clouds.14 mph94%29.89 "HgN/A
4:50 AM61 °FPassing clouds.15 mph94%29.86 "HgN/A
4:20 AM61 °FDrizzle. Fog.13 mph100%29.83 "Hg2 mi
3:20 AM64 °FDrizzle. Fog.12 mph94%29.80 "Hg3 mi
2:49 AM64 °FMild.N/A100%29.80 "Hg10 mi
2:20 AM64 °FPassing clouds.9 mph100%29.77 "Hg4 mi
1:20 AM66 °FPassing clouds.8 mph94%29.77 "Hg4 mi
12:20 AM68 °FPassing clouds.8 mph94%29.77 "Hg4 mi
Weather by CustomWeather, © 2016

See weather overviewHow to use our weather pages